When you browse on this site, cookies collect data to enhance your experience and personalize the content and advertising you see.
Visit our Privacy Policy to learn more. By continuing to use the site, you agree to this use of cookies and data.
  • En España
  • Lista de países
  • Para 7 días
  • Temperatura del agua
  • Mapa Satelital
  • El tiempo en el mapa
  • Informadores
  • user-avatar
    Iniciar sesión

    Tiempo cada hora Maksym

    Hoy, 21 Marzo, Jueves

    Tiempo Temperatura Precipitaciones Viento Presión Humedad
    00:00 +2°C° 0 mm 2 mps 762 mmHg 73%
    01:00 +2°C° 0 mm 2 mps 761 mmHg 75%
    02:00 +2°C° 0 mm 2 mps 761 mmHg 76%
    03:00 +1°C° 0 mm 2 mps 761 mmHg 76%
    04:00 0°C° 0 mm 3 mps 761 mmHg 75%
    05:00 0°C° 0 mm 3 mps 760 mmHg 74%
    06:00 0°C° 0 mm 4 mps 760 mmHg 71%
    07:00 +1°C° 0 mm 4 mps 760 mmHg 68%
    08:00 +2°C° 0 mm 5 mps 760 mmHg 65%
    09:00 +3°C° 0 mm 5 mps 759 mmHg 66%
    10:00 +3°C° 0 mm 5 mps 759 mmHg 67%
    11:00 +5°C° 0 mm 5 mps 759 mmHg 68%
    12:00 +5°C° 0 mm 5 mps 759 mmHg 66%
    13:00 +6°C° 0 mm 5 mps 759 mmHg 65%
    14:00 +7°C° 0 mm 5 mps 759 mmHg 63%
    15:00 +7°C° 0 mm 5 mps 759 mmHg 64%
    16:00 +7°C° 0 mm 4 mps 759 mmHg 65%
    17:00 +6°C° 0 mm 4 mps 759 mmHg 65%
    18:00 +7°C° 0 mm 3 mps 759 mmHg 70%
    19:00 +5°C° 0 mm 3 mps 759 mmHg 74%
    20:00 +5°C° 0 mm 2 mps 760 mmHg 78%
    21:00 +3°C° 0 mm 3 mps 759 mmHg 81%
    22:00 +3°C° 0 mm 3 mps 759 mmHg 84%
    23:00 +3°C° 0 mm 3 mps 759 mmHg 87%

    Mañana, 22 Marzo, Viernes

    Tiempo Temperatura Precipitaciones Viento Presión Humedad
    00:00 +3°C° 0 mm 3 mps 759 mmHg 88%
    01:00 +3°C° 0 mm 3 mps 759 mmHg 88%
    02:00 +4°C° 0 mm 2 mps 759 mmHg 89%
    03:00 +3°C° 0 mm 3 mps 758 mmHg 88%
    04:00 +3°C° 0 mm 3 mps 758 mmHg 88%
    05:00 +3°C° 0 mm 3 mps 757 mmHg 87%
    06:00 +4°C° 0.4 mm 4 mps 757 mmHg 87%
    07:00 +5°C° 0.4 mm 5 mps 757 mmHg 87%
    08:00 +5°C° 0.4 mm 5 mps 756 mmHg 88%
    09:00 +6°C° 0.3 mm 5 mps 756 mmHg 87%
    10:00 +7°C° 0.3 mm 6 mps 756 mmHg 85%
    11:00 +8°C° 0.3 mm 6 mps 756 mmHg 84%
    12:00 +8°C° 0.1 mm 6 mps 755 mmHg 81%
    13:00 +9°C° 0.1 mm 6 mps 755 mmHg 78%
    14:00 +9°C° 0.1 mm 6 mps 755 mmHg 74%
    15:00 +9°C° 0 mm 6 mps 755 mmHg 66%
    16:00 +9°C° 0 mm 6 mps 755 mmHg 57%
    17:00 +10°C° 0 mm 6 mps 755 mmHg 49%
    18:00 +8°C° 0 mm 5 mps 756 mmHg 50%
    19:00 +6°C° 0 mm 5 mps 756 mmHg 51%
    20:00 +4°C° 0 mm 4 mps 757 mmHg 52%
    21:00 +3°C° 0 mm 4 mps 757 mmHg 54%
    22:00 +1°C° 0 mm 4 mps 757 mmHg 57%
    23:00 +1°C° 0 mm 4 mps 758 mmHg 59%

    Pasado mañana, 23 Marzo, Sábado

    Tiempo Temperatura Precipitaciones Viento Presión Humedad
    00:00 0°C° 0 mm 4 mps 758 mmHg 60%
    01:00 0°C° 0 mm 4 mps 758 mmHg 62%
    02:00 0°C° 0 mm 5 mps 758 mmHg 64%
    03:00 -1°C° 0 mm 5 mps 758 mmHg 65%
    04:00 -1°C° 0 mm 5 mps 758 mmHg 67%
    05:00 -2°C° 0 mm 5 mps 758 mmHg 69%
    06:00 -1°C° 0 mm 5 mps 758 mmHg 67%
    07:00 -2°C° 0 mm 6 mps 758 mmHg 65%
    08:00 -1°C° 0 mm 6 mps 758 mmHg 63%
    09:00 +1°C° 0 mm 6 mps 758 mmHg 59%
    10:00 +2°C° 0 mm 6 mps 758 mmHg 56%
    11:00 +5°C° 0 mm 5 mps 758 mmHg 52%
    12:00 +5°C° 0 mm 5 mps 758 mmHg 50%
    13:00 +6°C° 0 mm 5 mps 757 mmHg 48%
    14:00 +7°C° 0 mm 5 mps 757 mmHg 47%
    15:00 +7°C° 0 mm 4 mps 757 mmHg 48%
    16:00 +7°C° 0 mm 4 mps 757 mmHg 49%
    17:00 +7°C° 0 mm 3 mps 757 mmHg 50%
    18:00 +6°C° 0 mm 2 mps 757 mmHg 55%
    19:00 +6°C° 0 mm 1 mps 757 mmHg 59%
    20:00 +4°C° 0 mm 0 mps 758 mmHg 64%
    21:00 +5°C° 0 mm 1 mps 757 mmHg 64%
    22:00 +5°C° 0 mm 1 mps 757 mmHg 64%
    23:00 +3°C° 0 mm 2 mps 757 mmHg 63%

    24 Marzo, Domingo

    Tiempo Temperatura Precipitaciones Viento Presión Humedad
    00:00 +4°C° 0 mm 2 mps 757 mmHg 62%
    01:00 +4°C° 0 mm 2 mps 756 mmHg 61%
    02:00 +3°C° 0 mm 3 mps 756 mmHg 59%
    03:00 +3°C° 0.2 mm 3 mps 755 mmHg 62%
    04:00 +3°C° 0.2 mm 3 mps 755 mmHg 65%
    05:00 +3°C° 0.2 mm 3 mps 755 mmHg 68%
    06:00 +4°C° 0.6 mm 4 mps 755 mmHg 76%
    07:00 +5°C° 0.6 mm 4 mps 755 mmHg 84%
    08:00 +6°C° 0.6 mm 4 mps 755 mmHg 93%
    09:00 +7°C° 0 mm 5 mps 755 mmHg 80%
    10:00 +8°C° 0 mm 5 mps 755 mmHg 68%
    11:00 +8°C° 0 mm 6 mps 755 mmHg 56%
    12:00 +9°C° 0 mm 6 mps 755 mmHg 52%
    13:00 +9°C° 0 mm 6 mps 755 mmHg 48%
    14:00 +9°C° 0 mm 6 mps 755 mmHg 44%
    15:00 +8°C° 0 mm 5 mps 755 mmHg 45%
    16:00 +8°C° 0 mm 5 mps 755 mmHg 45%
    17:00 +8°C° 0 mm 4 mps 755 mmHg 46%
    18:00 +7°C° 0 mm 3 mps 756 mmHg 51%
    19:00 +5°C° 0 mm 3 mps 756 mmHg 56%
    20:00 +5°C° 0 mm 2 mps 756 mmHg 61%
    21:00 +4°C° 0 mm 2 mps 756 mmHg 63%
    22:00 +4°C° 0 mm 2 mps 756 mmHg 65%
    23:00 +3°C° 0 mm 2 mps 756 mmHg 66%

    25 Marzo, Lunes

    Tiempo Temperatura Precipitaciones Viento Presión Humedad
    00:00 +4°C° 0 mm 1 mps 756 mmHg 67%
    01:00 +3°C° 0 mm 1 mps 756 mmHg 67%
    02:00 +3°C° 0 mm 1 mps 756 mmHg 68%
    03:00 +3°C° 0 mm 1 mps 756 mmHg 68%
    04:00 +3°C° 0 mm 1 mps 755 mmHg 68%
    05:00 +2°C° 0 mm 1 mps 755 mmHg 68%
    06:00 +2°C° 0 mm 2 mps 755 mmHg 66%
    07:00 +3°C° 0 mm 2 mps 755 mmHg 64%
    08:00 +2°C° 0 mm 3 mps 754 mmHg 62%
    09:00 +3°C° 0 mm 3 mps 754 mmHg 58%
    10:00 +5°C° 0 mm 4 mps 753 mmHg 54%
    11:00 +6°C° 0 mm 4 mps 752 mmHg 50%
    12:00 +7°C° 0 mm 5 mps 752 mmHg 48%
    13:00 +7°C° 0 mm 5 mps 751 mmHg 47%
    14:00 +8°C° 0 mm 5 mps 750 mmHg 45%
    15:00 +8°C° 0 mm 5 mps 749 mmHg 48%
    16:00 +7°C° 0 mm 5 mps 749 mmHg 51%
    17:00 +7°C° 0 mm 5 mps 748 mmHg 54%
    18:00 +6°C° 0.1 mm 5 mps 747 mmHg 62%
    19:00 +5°C° 0.1 mm 5 mps 747 mmHg 70%
    20:00 +3°C° 0.1 mm 5 mps 746 mmHg 79%
    21:00 +3°C° 0.1 mm 5 mps 746 mmHg 81%
    22:00 +3°C° 0.1 mm 5 mps 745 mmHg 83%
    23:00 +4°C° 0.1 mm 4 mps 745 mmHg 85%

    26 Marzo, Martes

    Tiempo Temperatura Precipitaciones Viento Presión Humedad
    00:00 +3°C° 0.1 mm 4 mps 744 mmHg 83%
    01:00 +3°C° 0.1 mm 4 mps 744 mmHg 81%
    02:00 +3°C° 0.1 mm 4 mps 744 mmHg 79%
    03:00 +1°C° 0 mm 4 mps 744 mmHg 78%
    04:00 0°C° 0 mm 4 mps 744 mmHg 77%
    05:00 -1°C° 0 mm 4 mps 744 mmHg 76%
    06:00 0°C° 0 mm 5 mps 744 mmHg 72%
    07:00 0°C° 0 mm 5 mps 744 mmHg 67%
    08:00 +1°C° 0 mm 6 mps 744 mmHg 62%
    09:00 +1°C° 0 mm 6 mps 744 mmHg 59%
    10:00 +2°C° 0 mm 6 mps 744 mmHg 57%
    11:00 +3°C° 0 mm 6 mps 744 mmHg 54%
    12:00 +3°C° 0.3 mm 6 mps 744 mmHg 52%
    13:00 +3°C° 0.3 mm 6 mps 744 mmHg 50%
    14:00 +4°C° 0.3 mm 6 mps 743 mmHg 48%
    15:00 +3°C° 0.2 mm 6 mps 743 mmHg 50%
    16:00 +3°C° 0.2 mm 5 mps 744 mmHg 51%
    17:00 +2°C° 0.2 mm 5 mps 744 mmHg 53%
    18:00 +2°C° 0 mm 5 mps 744 mmHg 57%
    19:00 +1°C° 0 mm 4 mps 745 mmHg 61%
    20:00 0°C° 0 mm 4 mps 746 mmHg 65%
    21:00 -1°C° 0 mm 4 mps 746 mmHg 67%
    22:00 -1°C° 0 mm 4 mps 746 mmHg 68%
    23:00 -1°C° 0 mm 3 mps 746 mmHg 70%
    Mostrar más